Regional Weather Roundup
Issued by NWS

Home | Current Version | Previous Version | Text Only | Print | Product List | Glossary Off
Versions: 1 2 3 4 5 6 7 8 9 10 11 12 13 14 15 16 17 18 19 20 21 22 23 24 25 26 27 28 29 30 31 32 33 34 35 36 37 38 39 40 41 42 43 44 45 46 47 48 49 50

000
ASUS43 KBIS 260202
RWRND

NORTH DAKOTA REGIONAL WEATHER ROUNDUP
NATIONAL WEATHER SERVICE BISMARCK ND
900 PM CDT MON JUL 25 2016

NOTE: "FAIR" INDICATES FEW OR NO CLOUDS BELOW 12,000 FEET WITH NO
SIGNIFICANT WEATHER AND/OR OBSTRUCTIONS TO VISIBILITY.


NDZ001>003-009>011-017-260300-
NORTHWEST NORTH DAKOTA

CITY           SKY/WX    TMP DP  RH WIND       PRES   REMARKS
WILLISTON      CLEAR     85  57  38 NE7       29.98R
MINOT          CLEAR     81  69  67 N7        29.96R
MINOT AFB      CLEAR     81  64  55 NE6       29.95S
$$

NDZ018>021-031>035-040>046-260300-
SOUTHWEST NORTH DAKOTA

CITY           SKY/WX    TMP DP  RH WIND       PRES   REMARKS
BISMARCK       CLEAR     82  70  66 E7        29.90S
DICKINSON      CLEAR     79  58  48 NE10      29.95R
GARRISON         N/A     80  70  71 NE7       29.95R
HETTINGER ARPT PTCLDY    88  57  34 E13       29.96R
$$

NDZ004>008-012>016-024-026-027-054-260300-
NORTHEAST NORTH DAKOTA

CITY           SKY/WX    TMP DP  RH WIND       PRES   REMARKS
GRAND FORKS    PTCLDY    84  69  60 E5        29.88F
GRND FRKS AFB  CLEAR     82  69  65 E5        29.89F
DEVILS LAKE    CLEAR     79  70  74 N10       29.94R
$$

NDZ022-023-025-028>030-036>039-047>053-260300-
SOUTHEAST NORTH DAKOTA

CITY           SKY/WX    TMP DP  RH WIND       PRES   REMARKS
FARGO          PTCLDY    84  64  50 S8        29.91S
JAMESTOWN      CLEAR     79  68  69 S3        29.91R
$$





USA.gov is the U.S. government's official web portal to all federal, state and local government web resources and services.